Tracking 28794 objects as of 19-Apr-2024
HD Live streaming from Space Station
objects crossing your sky now

SL-8 R/B

Track SL-8 R/B now!
10-day predictions


NORAD ID: 8073
Int'l Code: 1975-074B
Perigee: 969.2 km
Apogee: 1,000.3 km
Inclination: 82.9 °
Period: 104.6 minutes
Semi major axis: 7355 km
RCS: 4.716 m2 (large)
Launch date: August 14, 1975
Source: Commonwealth of Independent States (former USSR) (CIS)
Launch site: PLESETSK MISSILE AND SPACE COMPLEX (PKMTR)

Note: This is a ROCKET BODY
Your satellite tracking list
Your tracking list is empty




NASA's NSSDC Master Catalog

Two Line Element Set (TLE):
1 08073U 75074B   24109.93196524  .00000232  00000-0  22270-3 0  9999
2 08073  82.8976 262.7822 0021139 353.5242 117.9950 13.76137139443463
Source of the keplerian elements: AFSPC